When you browse on this site, cookies collect data to enhance your experience and personalize the content and advertising you see.
Visit our Privacy Policy to learn more. By continuing to use the site, you agree to this use of cookies and data.
  • In Portugal
  • List of Countries
  • For 7 days
  • Water Temperature
  • Satellite Maps
  • Weather Map
  • Weather Widgets
  • user-avatar
    Login

    Hourly Weather Yulara

    Today, 18 July, Thursday

    Time Temperature Precipitation Wind Pressure Humidity
    00:00 +10°C° 0 mm 4 mps 721 mmHg 48%
    01:00 +9°C° 0 mm 3 mps 721 mmHg 51%
    02:00 +8°C° 0 mm 3 mps 721 mmHg 55%
    03:00 +8°C° 0 mm 3 mps 721 mmHg 55%
    04:00 +7°C° 0 mm 3 mps 721 mmHg 58%
    05:00 +7°C° 0 mm 3 mps 721 mmHg 61%
    06:00 +7°C° 0 mm 3 mps 721 mmHg 63%
    07:00 +9°C° 0 mm 3 mps 722 mmHg 58%
    08:00 +11°C° 0 mm 3 mps 722 mmHg 52%
    09:00 +13°C° 0 mm 3 mps 722 mmHg 46%
    10:00 +16°C° 0 mm 3 mps 722 mmHg 39%
    11:00 +18°C° 0 mm 3 mps 722 mmHg 32%
    12:00 +21°C° 0 mm 3 mps 722 mmHg 25%
    13:00 +23°C° 0 mm 2 mps 721 mmHg 23%
    14:00 +23°C° 0 mm 1 mps 720 mmHg 21%
    15:00 +24°C° 0 mm 1 mps 720 mmHg 17%
    16:00 +21°C° 0 mm 1 mps 719 mmHg 27%
    17:00 +18°C° 0 mm 1 mps 719 mmHg 37%
    18:00 +13°C° 0 mm 1 mps 719 mmHg 48%
    19:00 +13°C° 0 mm 1 mps 719 mmHg 45%
    20:00 +13°C° 0 mm 2 mps 720 mmHg 43%
    21:00 +13°C° 0 mm 2 mps 720 mmHg 40%
    22:00 +13°C° 0 mm 2 mps 720 mmHg 38%
    23:00 +12°C° 0 mm 3 mps 720 mmHg 36%

    Tomorrow, 19 July, Friday

    Time Temperature Precipitation Wind Pressure Humidity
    00:00 +11°C° 0 mm 3 mps 720 mmHg 34%
    01:00 +11°C° 0 mm 3 mps 720 mmHg 37%
    02:00 +10°C° 0 mm 3 mps 719 mmHg 41%
    03:00 +9°C° 0 mm 3 mps 719 mmHg 44%
    04:00 +9°C° 0 mm 3 mps 719 mmHg 46%
    05:00 +8°C° 0 mm 3 mps 719 mmHg 47%
    06:00 +8°C° 0 mm 3 mps 719 mmHg 49%
    07:00 +10°C° 0 mm 3 mps 720 mmHg 43%
    08:00 +13°C° 0 mm 2 mps 720 mmHg 38%
    09:00 +15°C° 0 mm 2 mps 721 mmHg 32%
    10:00 +18°C° 0 mm 3 mps 721 mmHg 27%
    11:00 +20°C° 0 mm 4 mps 720 mmHg 22%
    12:00 +23°C° 0 mm 5 mps 720 mmHg 17%
    13:00 +25°C° 0 mm 4 mps 720 mmHg 16%
    14:00 +25°C° 0 mm 4 mps 719 mmHg 15%
    15:00 +26°C° 0 mm 4 mps 718 mmHg 13%
    16:00 +22°C° 0 mm 3 mps 718 mmHg 16%
    17:00 +20°C° 0 mm 3 mps 718 mmHg 19%
    18:00 +17°C° 0 mm 3 mps 718 mmHg 22%
    19:00 +16°C° 0 mm 3 mps 718 mmHg 24%
    20:00 +14°C° 0 mm 3 mps 718 mmHg 26%
    21:00 +13°C° 0 mm 3 mps 719 mmHg 28%
    22:00 +13°C° 0 mm 3 mps 718 mmHg 29%
    23:00 +12°C° 0 mm 3 mps 718 mmHg 31%

    Day after tomorrow, 20 July, Saturday

    Time Temperature Precipitation Wind Pressure Humidity
    00:00 +11°C° 0 mm 3 mps 718 mmHg 33%
    01:00 +12°C° 0 mm 2 mps 717 mmHg 33%
    02:00 +10°C° 0 mm 2 mps 717 mmHg 34%
    03:00 +10°C° 0 mm 2 mps 717 mmHg 34%
    04:00 +10°C° 0 mm 3 mps 717 mmHg 35%
    05:00 +9°C° 0 mm 3 mps 717 mmHg 37%
    06:00 +9°C° 0 mm 3 mps 717 mmHg 38%
    07:00 +11°C° 0 mm 3 mps 717 mmHg 33%
    08:00 +14°C° 0 mm 4 mps 718 mmHg 29%
    09:00 +17°C° 0 mm 4 mps 718 mmHg 25%
    10:00 +20°C° 0 mm 6 mps 718 mmHg 22%
    11:00 +23°C° 0 mm 7 mps 718 mmHg 18%
    12:00 +27°C° 0 mm 8 mps 717 mmHg 15%
    13:00 +27°C° 0 mm 8 mps 717 mmHg 15%
    14:00 +28°C° 0 mm 9 mps 716 mmHg 15%
    15:00 +29°C° 0 mm 9 mps 716 mmHg 14%
    16:00 +26°C° 0 mm 7 mps 716 mmHg 17%
    17:00 +23°C° 0 mm 5 mps 716 mmHg 20%
    18:00 +21°C° 0 mm 4 mps 716 mmHg 23%
    19:00 +20°C° 0 mm 4 mps 716 mmHg 25%
    20:00 +17°C° 0 mm 5 mps 717 mmHg 27%
    21:00 +16°C° 0 mm 5 mps 717 mmHg 28%
    22:00 +15°C° 0 mm 6 mps 717 mmHg 36%
    23:00 +13°C° 0 mm 6 mps 717 mmHg 43%

    21 July, Sunday

    Time Temperature Precipitation Wind Pressure Humidity
    00:00 +11°C° 0 mm 6 mps 718 mmHg 51%
    01:00 +10°C° 0 mm 5 mps 718 mmHg 55%
    02:00 +9°C° 0 mm 5 mps 718 mmHg 58%
    03:00 +8°C° 0 mm 4 mps 718 mmHg 62%
    04:00 +8°C° 0 mm 4 mps 718 mmHg 63%
    05:00 +7°C° 0 mm 4 mps 718 mmHg 65%
    06:00 +6°C° 0 mm 4 mps 719 mmHg 66%
    07:00 +8°C° 0 mm 4 mps 719 mmHg 60%
    08:00 +11°C° 0 mm 4 mps 720 mmHg 54%
    09:00 +12°C° 0 mm 5 mps 720 mmHg 48%
    10:00 +14°C° 0 mm 4 mps 720 mmHg 43%
    11:00 +16°C° 0 mm 3 mps 719 mmHg 38%
    12:00 +18°C° 0 mm 3 mps 719 mmHg 33%
    13:00 +19°C° 0 mm 2 mps 718 mmHg 30%
    14:00 +20°C° 0 mm 1 mps 718 mmHg 28%
    15:00 +21°C° 0 mm 1 mps 717 mmHg 25%
    16:00 +19°C° 0 mm 1 mps 717 mmHg 34%
    17:00 +15°C° 0 mm 1 mps 717 mmHg 43%
    18:00 +13°C° 0 mm 1 mps 717 mmHg 51%
    19:00 +12°C° 0 mm 2 mps 717 mmHg 48%
    20:00 +12°C° 0 mm 2 mps 718 mmHg 45%
    21:00 +11°C° 0 mm 3 mps 718 mmHg 42%
    22:00 +11°C° 0 mm 3 mps 718 mmHg 42%
    23:00 +11°C° 0 mm 3 mps 718 mmHg 42%

    22 July, Monday

    Time Temperature Precipitation Wind Pressure Humidity
    00:00 +10°C° 0 mm 3 mps 718 mmHg 42%
    01:00 +10°C° 0 mm 3 mps 717 mmHg 43%
    02:00 +9°C° 0 mm 3 mps 717 mmHg 44%
    03:00 +9°C° 0 mm 3 mps 717 mmHg 45%
    04:00 +8°C° 0 mm 3 mps 717 mmHg 49%
    05:00 +8°C° 0 mm 3 mps 717 mmHg 52%
    06:00 +7°C° 0 mm 3 mps 718 mmHg 55%
    07:00 +9°C° 0 mm 3 mps 718 mmHg 52%
    08:00 +11°C° 0 mm 4 mps 719 mmHg 48%
    09:00 +13°C° 0 mm 4 mps 719 mmHg 44%
    10:00 +16°C° 0 mm 3 mps 719 mmHg 39%
    11:00 +19°C° 0 mm 3 mps 719 mmHg 35%
    12:00 +21°C° 0 mm 3 mps 718 mmHg 30%
    13:00 +22°C° 0 mm 3 mps 718 mmHg 28%
    14:00 +24°C° 0 mm 2 mps 717 mmHg 26%
    15:00 +25°C° 0 mm 2 mps 717 mmHg 25%
    16:00 +23°C° 0 mm 2 mps 716 mmHg 29%
    17:00 +19°C° 0 mm 2 mps 716 mmHg 34%
    18:00 +17°C° 0 mm 2 mps 716 mmHg 39%
    19:00 +17°C° 0 mm 3 mps 717 mmHg 39%
    20:00 +16°C° 0 mm 3 mps 717 mmHg 39%
    21:00 +14°C° 0 mm 3 mps 718 mmHg 39%
    22:00 +14°C° 0 mm 4 mps 718 mmHg 38%
    23:00 +13°C° 0 mm 4 mps 718 mmHg 38%

    23 July, Tuesday

    Time Temperature Precipitation Wind Pressure Humidity
    00:00 +12°C° 0 mm 5 mps 719 mmHg 37%
    01:00 +12°C° 0 mm 5 mps 719 mmHg 35%
    02:00 +10°C° 0 mm 5 mps 719 mmHg 34%
    03:00 +9°C° 0 mm 5 mps 719 mmHg 32%
    04:00 +9°C° 0 mm 5 mps 719 mmHg 33%
    05:00 +9°C° 0 mm 5 mps 720 mmHg 33%
    06:00 +8°C° 0 mm 5 mps 720 mmHg 33%
    07:00 +10°C° 0 mm 5 mps 720 mmHg 31%
    08:00 +13°C° 0 mm 6 mps 721 mmHg 29%
    09:00 +14°C° 0 mm 6 mps 722 mmHg 27%
    10:00 +17°C° 0 mm 6 mps 721 mmHg 25%
    11:00 +20°C° 0 mm 7 mps 721 mmHg 24%
    12:00 +22°C° 0 mm 7 mps 721 mmHg 22%
    13:00 +23°C° 0 mm 6 mps 721 mmHg 22%
    14:00 +23°C° 0 mm 6 mps 720 mmHg 21%
    15:00 +25°C° 0 mm 5 mps 720 mmHg 21%
    16:00 +22°C° 0 mm 5 mps 720 mmHg 24%
    17:00 +20°C° 0 mm 5 mps 720 mmHg 27%
    18:00 +19°C° 0 mm 4 mps 720 mmHg 30%
    19:00 +16°C° 0 mm 5 mps 721 mmHg 32%
    20:00 +15°C° 0 mm 5 mps 721 mmHg 35%
    21:00 +14°C° 0 mm 6 mps 722 mmHg 37%
    22:00 +13°C° 0 mm 6 mps 722 mmHg 41%
    23:00 +12°C° 0 mm 5 mps 722 mmHg 45%
    Show more